Portada
METAR-TAF:

METAR-TAF

Aeropuertos :

Soldotna, Alaska, Estados Unidos

latitud: 60-29N, longitud: 151-02W, altitud: 33 m

Observación

El informe se hizo hace 10 minutos, a las 12:56 UTC
Viento calma
Temperatura -3°C
Humedad 100%
Presión 1000 hPa
Visibilidad: 16.1 km
Cielo cubierto a una altura de 500 ft

METAR: PASX 031256Z AUTO 00000KT 10SM OVC005 M03/M03 A2952 RMK AO2 SLP004 T10281033 FZRANO

Hora: 04:06 (13:06 UTC)


TAF: falta

Observaciones y pronósticos meteorológicos de más de 4000 aeropuertos (mensajes METAR y TAF).

Los puntos amarillos y rojos representan las estaciones disponibles.

Ponga el ratón en el punto deseado para ver el nombre de la estación.

Haga clic para ver las observaciones y los pronósticos meteorológicos.

Para cambiar el mapa : haga clic en los botones verdes con una cruz de color negro para hacer un zoom, en el botón verde con un guión para alejar o en las flechas verdes para mapas adyacentes.


METAR-TAF: